Dewpoint
68 69 69 69 69 69 69 70 70 71 71 71 71 71 71 71 71 71 71 71 71 71 70 70 70 69 68 68 68 68 66 66
67 67 68 67 67 68 69 69 70 70 70 70 70 70 71 71 70 71 71 70 70 70 69 69 69 69 69 68 68 67 66 66
66 66 67 66 67 68 69 70 69 69 70 69 68 68 68 69 69 69 69 68 68 69 69 68 68 68 68 68 67 67 66 66
65 66 66 67 68 67 67 68 67 67 67 67 66 66 66 67 68 68 68 68 68 68 68 67 67 66 67 67 67 67 67 67
66 65 66 66 66 66 65 66 65 65 66 65 64 65 64 64 64 64 65 67 67 67 67 67 66 67 66 66 66 67 65 65
65 65 65 64 65 65 64 65 64 64 64 64 63 62 62 61 62 62 61 62 62 63 66 67 66 64 65 65 64 63 64 65
66 66 65 64 64 64 64 64 63 63 63 62 61 60 59 59 59 59 59 59 60 60 60 61 60 62 62 61 59 61 64 63
66 66 65 64 63 63 62 62 61 59 57 57 60 59 58 58 57 57 57 57 56 57 57 57 56 58 57 58 59 62 61 60
66 65 64 62 61 60 59 59 58 56 54 54 56 57 57 57 56 55 54 51 51 51 50 52 51 52 50 50 54 59 58 58
65 61 59 58 57 56 56 55 55 53 52 51 51 51 53 55 55 50 50 49 49 49 48 48 46 46 44 46 54 57 57 57
62 58 55 55 55 54 54 53 52 51 50 49 49 49 52 51 50 49 49 48 48 48 47 47 44 44 43 48 55 55 54 55
60 57 55 54 52 52 51 51 50 50 49 48 48 48 49 49 48 47 48 47 46 46 45 45 44 43 45 52 52 52 51 51
58 55 54 53 52 50 49 48 48 48 48 47 46 46 47 46 45 46 46 45 45 45 44 43 43 44 48 50 49 47 46 47
57 55 55 55 54 52 47 47 46 46 46 45 45 44 45 45 44 45 45 45 44 44 44 43 43 43 43 48 47 45 44 46
55 55 55 55 54 50 46 45 44 44 43 44 44 44 44 44 44 45 45 45 44 43 44 43 41 43 43 46 45 44 40 43
55 55 55 54 53 51 47 44 42 43 43 43 43 44 44 45 44 45 45 44 44 43 43 43 42 41 41 41 41 44 39 38
54 55 55 55 53 51 47 43 42 43 43 42 43 43 44 44 44 44 44 43 42 42 41 42 42 41 40 39 37 38 39 36
55 55 55 53 50 48 46 44 42 42 42 42 42 43 43 44 43 43 42 41 40 40 39 39 39 39 39 39 38 37 36 37
53 53 52 50 48 47 46 44 42 42 42 42 42 42 42 42 42 42 41 41 40 39 38 37 37 37 36 35 35 35 36 36
50 50 50 49 48 47 46 44 43 42 42 42 42 42 42 43 42 41 41 40 39 38 37 36 36 36 34 34 34 34 34 34
Lifted_Index
-1 -1 -2 -2 -2 -3 -4 -4 -4 -5 -5 -6 -6 -6 -6 -6 -6 -6 -6 -6 -6 -6 -6 -6 -5 -5 -5 -4 -4 -4 -3 -3
-1 -1 -1 -1 -2 -3 -3 -4 -4 -5 -5 -5 -6 -6 -6 -6 -6 -6 -6 -6 -6 -6 -6 -5 -5 -5 -5 -4 -4 -4 -3 -3
-1 -1 -1 -1 -1 -2 -3 -3 -4 -4 -4 -5 -5 -5 -5 -5 -5 -5 -5 -5 -5 -5 -5 -5 -5 -5 -5 -4 -4 -4 -3 -3
-2 -1 -1 -1 -2 -2 -2 -3 -3 -4 -4 -4 -4 -5 -5 -5 -5 -5 -4 -4 -4 -4 -4 -4 -4 -4 -4 -4 -4 -4 -3 -3
-2 -2 -1 -1 -2 -2 -2 -3 -3 -3 -4 -4 -4 -4 -4 -4 -5 -4 -4 -4 -4 -4 -4 -4 -4 -4 -4 -4 -4 -3 -3 -3
-2 -2 -1 -1 -2 -2 -2 -2 -3 -3 -3 -3 -3 -4 -4 -4 -4 -4 -3 -3 -3 -3 -4 -4 -4 -3 -3 -3 -3 -2 -2 -2
-2 -2 -2 -2 -2 -2 -2 -3 -3 -3 -3 -3 -3 -2 -2 -2 -2 -2 -2 -2 -2 -3 -3 -3 -3 -3 -3 -2 -2 -1 -1 -1
-2 -2 -2 -2 -2 -2 -3 -3 -3 -3 -2 -2 -1 -1 -0 0 -0 -1 -1 -1 -1 -2 -2 -2 -3 -3 -2 -2 -1 -1 -1 -1
-4 -4 -3 -3 -3 -3 -3 -4 -3 -2 -1 -1 -0 0 1 1 1 1 0 0 -0 -1 -1 -1 -2 -2 -1 -1 -0 0 0 1
-5 -5 -4 -4 -4 -4 -4 -4 -4 -2 -1 1 1 1 1 2 2 2 2 1 1 1 0 -0 -0 -1 0 1 2 2 2 2
-5 -5 -5 -4 -4 -4 -4 -4 -3 -2 0 2 3 3 2 2 2 2 2 2 2 2 2 1 1 1 1 2 3 3 3 4
-6 -5 -5 -4 -4 -3 -3 -2 -2 -0 2 4 5 5 4 3 3 3 3 3 3 3 3 3 2 2 2 3 3 4 4 4
-5 -5 -5 -4 -3 -2 -2 -1 0 2 4 6 7 7 6 5 5 4 4 4 4 4 5 5 5 4 4 4 4 5 5 5
-5 -5 -4 -3 -2 -1 -0 1 2 3 5 6 7 7 7 7 6 6 6 6 6 7 7 7 7 7 6 5 5 5 6 6
-4 -4 -3 -2 -1 0 1 2 2 3 4 5 7 7 8 8 8 8 8 8 8 9 8 8 9 8 6 5 6 6 6 6
-3 -3 -2 -1 -0 1 1 2 3 3 4 5 6 7 7 8 8 9 9 9 9 10 9 9 9 9 7 6 5 6 6 7
-2 -2 -1 -0 1 1 2 3 3 4 4 4 5 6 6 7 8 9 10 10 10 10 10 9 9 9 8 6 6 6 6 6
-1 -0 0 1 1 2 3 3 4 4 4 4 5 5 6 7 8 10 10 10 10 10 10 10 9 9 8 7 7 6 5 5
0 1 1 2 2 3 3 4 4 4 4 4 5 5 5 6 8 9 10 10 10 10 10 10 10 9 9 8 8 7 6 6
1 1 2 2 2 3 3 3 3 4 4 4 5 5 5 6 7 9 10 10 10 10 10 10 10 10 9 9 9 8 7 7